This is the latest recevied weather packets stored in our database for station/object K5MGY. If no packets are shown the sender has not sent any weather packets the latest 10 day(s).
| Time | Temp. | Humidity | Pressure | Rain* | Wind** | Luminosity | Snow |
|---|---|---|---|---|---|---|---|
| 1777920141 | 27.22° C | 53% | 1034.4 hPa | 0 mm | - | 304 W/m² | - |
| 1777919837 | 26.67° C | 54% | 1034.5 hPa | 0 mm | - | 776 W/m² | - |
| 1777919534 | 26.67° C | 53% | 1034.7 hPa | 0 mm | - | 772 W/m² | - |
| 1777919233 | 26.67° C | 53% | 1034.7 hPa | 0 mm | - | 696 W/m² | - |
| 1777918929 | 26.67° C | 55% | 1034.9 hPa | 0 mm | - | 722 W/m² | - |
| 1777918627 | 26.67° C | 52% | 1035.1 hPa | 0 mm | - | 765 W/m² | - |
| 1777918324 | 26.11° C | 54% | 1034.8 hPa | 0 mm | - | 216 W/m² | - |
| 1777918023 | 26.67° C | 53% | 1035.4 hPa | 0 mm | - | 594 W/m² | - |
| 1777917721 | 26.11° C | 53% | 1035.1 hPa | 0 mm | - | 649 W/m² | - |
| 1777917418 | 26.11° C | 54% | 1034.9 hPa | 0 mm | - | 707 W/m² | - |
| 1777917115 | 26.11° C | 53% | 1035.4 hPa | 0 mm | - | 733 W/m² | - |
| 1777916813 | 26.11° C | 53% | 1035.4 hPa | 0 mm | - | 755 W/m² | - |
| 1777916509 | 26.11° C | 53% | 1035.5 hPa | 0 mm | - | 745 W/m² | - |
| 1777916207 | 25.56° C | 54% | 1035.6 hPa | 0 mm | - | 741 W/m² | - |
| 1777915904 | 26.11° C | 53% | 1035.6 hPa | 0 mm | - | 730 W/m² | - |
| 1777915600 | 25.56° C | 52% | 1035.6 hPa | 0 mm | - | 726 W/m² | - |
| 1777915297 | 25.56° C | 53% | 1035.7 hPa | 0 mm | - | 730 W/m² | - |
| 1777914993 | 25.56° C | 53% | 1035.9 hPa | 0 mm | - | 728 W/m² | - |
| 1777914691 | 25.56° C | 54% | 1036 hPa | 0 mm | - | 717 W/m² | - |
| 1777914387 | 25.56° C | 54% | 1035.8 hPa | 0 mm | - | 695 W/m² | - |
| 1777914085 | 25.56° C | 53% | 1036.4 hPa | 0 mm | - | 708 W/m² | - |
| 1777913781 | 25° C | 54% | 1036.2 hPa | 0 mm | - | 695 W/m² | - |
| 1777913477 | 25° C | 54% | 1036.4 hPa | 0 mm | - | 687 W/m² | - |
| 1777913174 | 25° C | 54% | 1036.3 hPa | 0 mm | - | 645 W/m² | - |
| 1777912870 | 25° C | 54% | 1036.7 hPa | 0 mm | - | 643 W/m² | - |
* Rain latest hour (hover to see other rain measurements)
** Current wind speed in m/s (hover to see current wind gust speed)